QPF
0.06 0.06 0.06 0.04 0.05 0.07 0.05 0.05 0.06 0.08 0.10 0.13 0.11 0.09 0.06 0.05 0.05 0.04 0.02 0.02 0.03 0.03 0.05 0.05 0.05 0.05 0.04 0.05 0.06 0.06 0.06 0.06 0.05 0.04 0.04 0.05 0.04 0.04 0.05 0.05 0.04 0.03 0.04
0.06 0.04 0.04 0.04 0.06 0.07 0.06 0.05 0.05 0.06 0.09 0.11 0.10 0.07 0.06 0.05 0.06 0.04 0.03 0.03 0.02 0.02 0.03 0.03 0.03 0.04 0.04 0.04 0.05 0.05 0.07 0.09 0.10 0.10 0.08 0.06 0.05 0.04 0.04 0.06 0.06 0.06 0.05
0.10 0.05 0.05 0.06 0.08 0.10 0.09 0.07 0.05 0.07 0.09 0.10 0.10 0.08 0.07 0.08 0.07 0.04 0.03 0.04 0.04 0.03 0.03 0.03 0.03 0.04 0.03 0.04 0.04 0.04 0.05 0.08 0.08 0.06 0.04 0.04 0.04 0.03 0.05 0.05 0.05 0.05 0.05
0.12 0.09 0.06 0.05 0.04 0.06 0.07 0.06 0.07 0.08 0.09 0.12 0.13 0.11 0.11 0.08 0.05 0.04 0.04 0.03 0.03 0.04 0.04 0.03 0.03 0.03 0.03 0.03 0.03 0.03 0.05 0.06 0.06 0.05 0.04 0.04 0.04 0.04 0.04 0.04 0.04 0.03 0.04
0.08 0.10 0.07 0.05 0.04 0.05 0.07 0.09 0.08 0.06 0.08 0.13 0.18 0.15 0.12 0.08 0.05 0.05 0.05 0.04 0.04 0.05 0.04 0.03 0.04 0.04 0.04 0.04 0.04 0.04 0.06 0.05 0.04 0.04 0.04 0.04 0.04 0.04 0.04 0.05 0.05 0.05 0.04
0.04 0.04 0.03 0.05 0.06 0.07 0.08 0.09 0.07 0.07 0.11 0.15 0.16 0.14 0.11 0.09 0.07 0.05 0.05 0.04 0.04 0.03 0.04 0.04 0.05 0.05 0.05 0.04 0.04 0.04 0.05 0.04 0.04 0.05 0.06 0.05 0.05 0.06 0.07 0.07 0.07 0.06 0.04
0.02 0.02 0.02 0.03 0.05 0.05 0.07 0.09 0.10 0.09 0.09 0.10 0.10 0.10 0.08 0.06 0.06 0.05 0.05 0.04 0.03 0.03 0.03 0.03 0.03 0.03 0.04 0.03 0.04 0.05 0.05 0.04 0.04 0.05 0.05 0.05 0.07 0.08 0.08 0.07 0.07 0.06 0.06
0.02 0.02 0.03 0.04 0.04 0.04 0.06 0.08 0.11 0.12 0.12 0.12 0.10 0.08 0.06 0.04 0.04 0.04 0.03 0.03 0.03 0.02 0.02 0.02 0.02 0.02 0.03 0.04 0.04 0.04 0.05 0.05 0.05 0.05 0.05 0.05 0.07 0.07 0.08 0.07 0.07 0.07 0.06
0.03 0.03 0.04 0.05 0.05 0.06 0.08 0.09 0.10 0.10 0.08 0.09 0.10 0.08 0.05 0.03 0.04 0.04 0.04 0.03 0.02 0.01 0.01 0.02 0.02 0.02 0.03 0.04 0.05 0.05 0.05 0.06 0.07 0.08 0.07 0.06 0.05 0.05 0.06 0.06 0.05 0.06 0.07
0.04 0.05 0.06 0.06 0.05 0.06 0.09 0.09 0.08 0.06 0.04 0.05 0.06 0.04 0.03 0.03 0.04 0.05 0.05 0.03 0.02 0.02 0.02 0.02 0.03 0.03 0.05 0.06 0.06 0.07 0.08 0.07 0.07 0.06 0.07 0.06 0.05 0.05 0.06 0.06 0.06 0.06 0.05
0.06 0.06 0.07 0.06 0.05 0.06 0.07 0.06 0.05 0.04 0.03 0.02 0.02 0.02 0.02 0.02 0.04 0.04 0.03 0.02 0.02 0.02 0.02 0.02 0.02 0.03 0.05 0.07 0.08 0.09 0.11 0.10 0.08 0.06 0.05 0.05 0.06 0.07 0.07 0.07 0.08 0.08 0.06
0.06 0.05 0.05 0.04 0.04 0.05 0.06 0.05 0.04 0.03 0.02 0.02 0.01 0.02 0.03 0.03 0.02 0.02 0.02 0.02 0.03 0.03 0.03 0.02 0.03 0.03 0.03 0.04 0.05 0.06 0.07 0.06 0.05 0.05 0.05 0.04 0.04 0.05 0.07 0.07 0.08 0.09 0.10
0.03 0.03 0.04 0.03 0.02 0.03 0.04 0.05 0.04 0.02 0.02 0.02 0.02 0.03 0.04 0.04 0.02 0.01 0.02 0.03 0.03 0.03 0.03 0.04 0.05 0.05 0.05 0.04 0.04 0.04 0.04 0.04 0.05 0.05 0.04 0.03 0.03 0.03 0.04 0.05 0.07 0.10 0.12
0.01 0.02 0.03 0.03 0.02 0.03 0.04 0.05 0.06 0.04 0.03 0.02 0.02 0.02 0.02 0.02 0.02 0.02 0.02 0.02 0.03 0.03 0.03 0.04 0.04 0.05 0.06 0.05 0.04 0.03 0.03 0.03 0.04 0.04 0.04 0.03 0.03 0.03 0.05 0.06 0.08 0.10 0.11
0.02 0.02 0.04 0.03 0.03 0.04 0.04 0.06 0.09 0.08 0.07 0.05 0.04 0.03 0.03 0.03 0.03 0.03 0.02 0.02 0.03 0.04 0.03 0.04 0.04 0.03 0.03 0.02 0.02 0.02 0.02 0.02 0.02 0.03 0.03 0.03 0.03 0.04 0.04 0.05 0.06 0.08 0.08
0.02 0.03 0.05 0.04 0.03 0.03 0.05 0.07 0.09 0.10 0.09 0.07 0.05 0.03 0.03 0.03 0.04 0.04 0.03 0.03 0.02 0.03 0.02 0.02 0.02 0.02 0.02 0.02 0.02 0.01 0.01 0.01 0.01 0.01 0.02 0.02 0.02 0.02 0.02 0.02 0.03 0.03 0.03
0.04 0.05 0.08 0.06 0.04 0.05 0.04 0.05 0.07 0.09 0.10 0.08 0.05 0.05 0.04 0.05 0.05 0.05 0.03 0.02 0.02 0.02 0.01 0.01 0.01 0.01 0.01 0.01 0.00 0.00 0.00 0.01 0.01 0.01 0.01 0.01 0.01 0.01 0.01 0.01 0.01 0.01 0.01
0.04 0.05 0.06 0.05 0.04 0.05 0.06 0.06 0.06 0.07 0.07 0.06 0.05 0.05 0.04 0.04 0.04 0.04 0.03 0.02 0.01 0.02 0.01 0.02 0.02 0.02 0.01 0.01 0.01 0.01 0.00 0.00 0.01 0.01 0.01 0.02 0.02 0.02 0.01 0.01 0.01 0.01 0.01
0.04 0.04 0.05 0.03 0.04 0.08 0.09 0.08 0.06 0.06 0.05 0.05 0.04 0.04 0.03 0.03 0.03 0.02 0.01 0.01 0.01 0.01 0.01 0.01 0.01 0.01 0.01 0.01 0.01 0.02 0.02 0.02 0.02 0.02 0.03 0.03 0.03 0.02 0.01 0.01 0.01 0.01 0.01
0.03 0.04 0.04 0.03 0.03 0.06 0.09 0.08 0.07 0.05 0.05 0.05 0.06 0.05 0.04 0.03 0.03 0.02 0.02 0.03 0.02 0.02 0.01 0.01 0.01 0.02 0.02 0.02 0.03 0.04 0.06 0.06 0.05 0.05 0.04 0.04 0.02 0.01 0.01 0.01 0.00 0.00 0.00
0.01 0.02 0.02 0.02 0.03 0.04 0.05 0.06 0.06 0.05 0.06 0.06 0.05 0.05 0.05 0.04 0.03 0.03 0.03 0.02 0.02 0.02 0.02 0.02 0.02 0.01 0.01 0.02 0.03 0.05 0.06 0.05 0.05 0.05 0.05 0.05 0.03 0.02 0.01 0.01 0.00 0.00 0.00
0.01 0.01 0.01 0.01 0.02 0.04 0.07 0.08 0.07 0.06 0.06 0.06 0.05 0.04 0.04 0.03 0.02 0.02 0.02 0.02 0.02 0.02 0.02 0.02 0.01 0.01 0.01 0.02 0.03 0.03 0.04 0.04 0.05 0.05 0.05 0.05 0.04 0.03 0.02 0.01 0.00 0.00 0.00
0.02 0.01 0.01 0.01 0.01 0.02 0.03 0.04 0.05 0.04 0.04 0.05 0.05 0.04 0.03 0.03 0.03 0.03 0.02 0.02 0.01 0.01 0.01 0.01 0.01 0.01 0.01 0.02 0.03 0.03 0.03 0.03 0.03 0.03 0.03 0.03 0.03 0.02 0.02 0.01 0.01 0.01 0.01
0.01 0.01 0.01 0.01 0.01 0.01 0.01 0.02 0.05 0.06 0.05 0.05 0.05 0.06 0.05 0.04 0.04 0.03 0.02 0.02 0.01 0.01 0.00 0.00 0.00 0.00 0.00 0.01 0.01 0.01 0.01 0.01 0.01 0.01 0.02 0.02 0.02 0.02 0.01 0.01 0.01 0.01 0.01
0.01 0.01 0.01 0.01 0.01 0.02 0.02 0.02 0.04 0.05 0.07 0.07 0.07 0.07 0.07 0.05 0.04 0.03 0.02 0.01 0.01 0.01 0.00 0.00 0.00 0.00 0.00 0.00 0.00 0.00 0.01 0.01 0.01 0.01 0.01 0.01 0.02 0.02 0.02 0.02 0.02 0.01 0.01
0.03 0.03 0.03 0.03 0.03 0.03 0.03 0.03 0.04 0.04 0.05 0.05 0.05 0.04 0.04 0.03 0.02 0.02 0.01 0.00 0.00 0.00 0.00 0.00 0.00 0.00 0.00 0.00 0.00 0.01 0.01 0.01 0.01 0.02 0.02 0.02 0.02 0.01 0.01 0.02 0.02 0.01 0.01
MSLP
1022.57 1022.88 1023.21 1023.52 1023.75 1023.89 1023.93 1023.88 1023.76 1023.60 1023.41 1023.22 1023.01 1022.79 1022.54 1022.26 1021.96 1021.64 1021.32 1021.02 1020.76 1020.55 1020.41 1020.33 1020.32 1020.36 1020.46 1020.61 1020.80 1021.04 1021.30 1021.58 1021.85 1022.09 1022.25 1022.29 1022.20 1021.97 1021.59 1021.10 1020.52 1019.92 1019.32
1023.64 1023.93 1024.23 1024.51 1024.71 1024.83 1024.85 1024.80 1024.68 1024.53 1024.37 1024.20 1024.02 1023.85 1023.66 1023.45 1023.23 1022.99 1022.74 1022.51 1022.29 1022.10 1021.95 1021.84 1021.76 1021.73 1021.74 1021.79 1021.88 1022.03 1022.21 1022.43 1022.65 1022.84 1022.96 1022.99 1022.88 1022.64 1022.26 1021.77 1021.21 1020.62 1020.04
1024.69 1024.98 1025.27 1025.52 1025.70 1025.78 1025.78 1025.71 1025.59 1025.43 1025.27 1025.11 1024.96 1024.82 1024.67 1024.52 1024.36 1024.18 1024.00 1023.82 1023.65 1023.49 1023.34 1023.22 1023.11 1023.02 1022.95 1022.92 1022.93 1022.99 1023.10 1023.23 1023.39 1023.52 1023.60 1023.60 1023.48 1023.23 1022.86 1022.38 1021.84 1021.28 1020.74
1025.66 1025.97 1026.26 1026.49 1026.65 1026.71 1026.69 1026.59 1026.46 1026.29 1026.13 1025.98 1025.84 1025.71 1025.59 1025.47 1025.35 1025.22 1025.08 1024.95 1024.81 1024.68 1024.55 1024.42 1024.30 1024.17 1024.07 1023.98 1023.93 1023.91 1023.94 1024.01 1024.09 1024.17 1024.20 1024.15 1024.01 1023.76 1023.40 1022.94 1022.44 1021.91 1021.41
1026.50 1026.84 1027.14 1027.37 1027.52 1027.56 1027.53 1027.42 1027.28 1027.12 1026.96 1026.81 1026.67 1026.55 1026.44 1026.33 1026.23 1026.12 1026.01 1025.90 1025.79 1025.68 1025.56 1025.44 1025.32 1025.19 1025.06 1024.94 1024.85 1024.78 1024.76 1024.76 1024.78 1024.79 1024.77 1024.69 1024.52 1024.26 1023.90 1023.47 1023.00 1022.50 1022.03
1027.20 1027.57 1027.89 1028.12 1028.27 1028.32 1028.29 1028.19 1028.06 1027.91 1027.76 1027.62 1027.49 1027.37 1027.26 1027.15 1027.04 1026.93 1026.82 1026.71 1026.61 1026.51 1026.41 1026.30 1026.19 1026.07 1025.94 1025.81 1025.70 1025.60 1025.53 1025.49 1025.45 1025.41 1025.34 1025.22 1025.03 1024.76 1024.41 1023.99 1023.53 1023.06 1022.61
1027.75 1028.15 1028.49 1028.74 1028.90 1028.97 1028.96 1028.89 1028.79 1028.67 1028.54 1028.42 1028.30 1028.19 1028.07 1027.94 1027.82 1027.69 1027.56 1027.44 1027.33 1027.23 1027.14 1027.04 1026.94 1026.83 1026.72 1026.60 1026.48 1026.38 1026.28 1026.20 1026.13 1026.04 1025.93 1025.77 1025.55 1025.27 1024.92 1024.51 1024.06 1023.61 1023.16
1028.20 1028.61 1028.96 1029.23 1029.41 1029.51 1029.54 1029.51 1029.46 1029.39 1029.30 1029.21 1029.11 1029.00 1028.87 1028.73 1028.58 1028.42 1028.26 1028.12 1027.99 1027.88 1027.79 1027.70 1027.61 1027.53 1027.43 1027.33 1027.22 1027.11 1027.01 1026.90 1026.79 1026.67 1026.52 1026.33 1026.09 1025.79 1025.44 1025.03 1024.59 1024.14 1023.69
1028.57 1028.98 1029.33 1029.62 1029.82 1029.96 1030.03 1030.07 1030.07 1030.05 1030.01 1029.96 1029.88 1029.78 1029.65 1029.49 1029.31 1029.13 1028.94 1028.77 1028.62 1028.50 1028.40 1028.32 1028.24 1028.17 1028.09 1028.01 1027.91 1027.81 1027.70 1027.58 1027.45 1027.30 1027.12 1026.90 1026.64 1026.33 1025.96 1025.55 1025.12 1024.66 1024.20
1028.91 1029.30 1029.65 1029.94 1030.16 1030.33 1030.45 1030.54 1030.60 1030.63 1030.65 1030.63 1030.58 1030.49 1030.36 1030.19 1030.00 1029.80 1029.59 1029.40 1029.24 1029.11 1029.00 1028.92 1028.86 1028.80 1028.73 1028.66 1028.57 1028.47 1028.35 1028.22 1028.07 1027.90 1027.70 1027.46 1027.18 1026.85 1026.48 1026.07 1025.63 1025.17 1024.70
1029.23 1029.60 1029.93 1030.21 1030.45 1030.64 1030.80 1030.93 1031.04 1031.12 1031.17 1031.19 1031.16 1031.09 1030.97 1030.80 1030.61 1030.40 1030.20 1030.00 1029.84 1029.70 1029.60 1029.52 1029.46 1029.41 1029.35 1029.27 1029.19 1029.08 1028.95 1028.81 1028.64 1028.45 1028.23 1027.97 1027.68 1027.34 1026.96 1026.55 1026.10 1025.64 1025.16
1029.54 1029.88 1030.19 1030.46 1030.70 1030.90 1031.08 1031.24 1031.37 1031.48 1031.56 1031.60 1031.60 1031.54 1031.44 1031.29 1031.11 1030.92 1030.73 1030.55 1030.40 1030.28 1030.19 1030.11 1030.05 1029.99 1029.93 1029.85 1029.75 1029.63 1029.49 1029.32 1029.14 1028.93 1028.69 1028.42 1028.12 1027.77 1027.39 1026.97 1026.52 1026.05 1025.56
1029.83 1030.14 1030.43 1030.68 1030.91 1031.11 1031.29 1031.46 1031.60 1031.73 1031.82 1031.87 1031.88 1031.84 1031.75 1031.63 1031.49 1031.33 1031.18 1031.04 1030.91 1030.81 1030.73 1030.67 1030.60 1030.53 1030.45 1030.35 1030.23 1030.09 1029.92 1029.74 1029.54 1029.31 1029.07 1028.79 1028.47 1028.12 1027.73 1027.31 1026.86 1026.38 1025.88
1030.08 1030.37 1030.63 1030.87 1031.08 1031.27 1031.44 1031.60 1031.74 1031.86 1031.94 1031.99 1032.01 1031.98 1031.92 1031.84 1031.74 1031.63 1031.52 1031.43 1031.35 1031.28 1031.22 1031.15 1031.08 1031.00 1030.89 1030.76 1030.61 1030.43 1030.24 1030.04 1029.82 1029.58 1029.33 1029.04 1028.73 1028.38 1027.99 1027.56 1027.09 1026.60 1026.08
1030.26 1030.54 1030.78 1031.00 1031.20 1031.38 1031.53 1031.67 1031.79 1031.89 1031.96 1032.00 1032.02 1032.00 1031.97 1031.92 1031.87 1031.81 1031.76 1031.72 1031.68 1031.64 1031.60 1031.54 1031.45 1031.34 1031.20 1031.04 1030.85 1030.65 1030.43 1030.21 1029.97 1029.73 1029.48 1029.20 1028.89 1028.54 1028.14 1027.71 1027.23 1026.72 1026.18
1030.35 1030.63 1030.87 1031.08 1031.26 1031.43 1031.57 1031.68 1031.78 1031.85 1031.90 1031.93 1031.94 1031.93 1031.92 1031.91 1031.89 1031.89 1031.89 1031.89 1031.89 1031.88 1031.85 1031.78 1031.68 1031.54 1031.37 1031.17 1030.95 1030.71 1030.47 1030.24 1030.00 1029.76 1029.51 1029.24 1028.94 1028.60 1028.21 1027.77 1027.28 1026.75 1026.19
1030.34 1030.62 1030.86 1031.08 1031.26 1031.41 1031.54 1031.64 1031.71 1031.76 1031.79 1031.80 1031.81 1031.81 1031.81 1031.82 1031.84 1031.88 1031.92 1031.96 1031.98 1031.98 1031.95 1031.87 1031.75 1031.58 1031.37 1031.14 1030.89 1030.63 1030.38 1030.14 1029.91 1029.69 1029.45 1029.20 1028.92 1028.59 1028.21 1027.77 1027.27 1026.72 1026.13
1030.23 1030.52 1030.77 1030.99 1031.18 1031.33 1031.45 1031.54 1031.60 1031.64 1031.65 1031.65 1031.65 1031.65 1031.66 1031.69 1031.73 1031.79 1031.85 1031.90 1031.94 1031.94 1031.89 1031.80 1031.65 1031.45 1031.22 1030.96 1030.69 1030.42 1030.17 1029.93 1029.72 1029.52 1029.31 1029.09 1028.83 1028.52 1028.15 1027.71 1027.21 1026.65 1026.03
1030.04 1030.33 1030.59 1030.82 1031.02 1031.18 1031.30 1031.39 1031.45 1031.48 1031.48 1031.48 1031.47 1031.47 1031.49 1031.52 1031.57 1031.63 1031.69 1031.75 1031.77 1031.75 1031.69 1031.57 1031.39 1031.17 1030.91 1030.64 1030.36 1030.09 1029.85 1029.63 1029.44 1029.26 1029.08 1028.89 1028.66 1028.38 1028.03 1027.60 1027.11 1026.54 1025.91
1029.77 1030.07 1030.34 1030.58 1030.79 1030.96 1031.10 1031.20 1031.26 1031.29 1031.30 1031.29 1031.28 1031.28 1031.29 1031.32 1031.36 1031.41 1031.46 1031.49 1031.49 1031.45 1031.35 1031.20 1031.00 1030.75 1030.48 1030.19 1029.91 1029.65 1029.42 1029.23 1029.06 1028.92 1028.77 1028.61 1028.41 1028.15 1027.82 1027.42 1026.93 1026.37 1025.74
1029.47 1029.77 1030.04 1030.29 1030.51 1030.70 1030.84 1030.95 1031.03 1031.07 1031.08 1031.08 1031.07 1031.07 1031.07 1031.09 1031.11 1031.14 1031.16 1031.15 1031.11 1031.03 1030.90 1030.71 1030.48 1030.22 1029.93 1029.64 1029.37 1029.12 1028.91 1028.73 1028.59 1028.46 1028.35 1028.21 1028.03 1027.80 1027.50 1027.12 1026.65 1026.11 1025.50
1029.17 1029.46 1029.73 1029.98 1030.20 1030.40 1030.55 1030.67 1030.76 1030.80 1030.83 1030.83 1030.82 1030.82 1030.81 1030.81 1030.81 1030.80 1030.78 1030.73 1030.65 1030.52 1030.35 1030.13 1029.87 1029.58 1029.28 1028.99 1028.72 1028.48 1028.28 1028.12 1027.99 1027.89 1027.79 1027.67 1027.51 1027.30 1027.02 1026.66 1026.23 1025.72 1025.13
1028.91 1029.18 1029.43 1029.67 1029.89 1030.08 1030.24 1030.36 1030.45 1030.50 1030.53 1030.53 1030.52 1030.51 1030.49 1030.46 1030.43 1030.39 1030.32 1030.23 1030.09 1029.92 1029.70 1029.44 1029.15 1028.85 1028.54 1028.24 1027.97 1027.73 1027.54 1027.39 1027.27 1027.17 1027.07 1026.95 1026.81 1026.61 1026.35 1026.02 1025.62 1025.14 1024.59
1028.69 1028.93 1029.17 1029.39 1029.59 1029.76 1029.90 1030.02 1030.09 1030.14 1030.17 1030.17 1030.15 1030.13 1030.09 1030.04 1029.97 1029.89 1029.78 1029.63 1029.45 1029.22 1028.96 1028.67 1028.35 1028.02 1027.69 1027.39 1027.11 1026.88 1026.69 1026.53 1026.40 1026.30 1026.19 1026.08 1025.93 1025.74 1025.49 1025.18 1024.81 1024.38 1023.87
1028.52 1028.74 1028.94 1029.13 1029.29 1029.44 1029.55 1029.64 1029.69 1029.73 1029.73 1029.72 1029.69 1029.65 1029.59 1029.51 1029.41 1029.29 1029.13 1028.93 1028.70 1028.43 1028.13 1027.79 1027.45 1027.10 1026.76 1026.45 1026.17 1025.93 1025.73 1025.57 1025.44 1025.32 1025.20 1025.08 1024.92 1024.73 1024.49 1024.20 1023.85 1023.45 1023.00
1028.38 1028.56 1028.73 1028.87 1029.00 1029.09 1029.16 1029.21 1029.23 1029.23 1029.21 1029.18 1029.12 1029.06 1028.97 1028.86 1028.73 1028.56 1028.36 1028.12 1027.85 1027.54 1027.19 1026.83 1026.47 1026.10 1025.76 1025.44 1025.16 1024.92 1024.72 1024.56 1024.41 1024.29 1024.16 1024.02 1023.85 1023.66 1023.42 1023.14 1022.81 1022.44 1022.02
Thickness
5773 5770 5767 5764 5761 5757 5754 5752 5750 5748 5746 5744 5742 5740 5738 5736 5734 5733 5731 5730 5728 5727 5726 5725 5724 5724 5722 5721 5720 5718 5717 5714 5710 5710 5710 5710 5710 5710 5709 5708 5707 5706 5704
5772 5769 5766 5762 5759 5755 5753 5750 5748 5746 5744 5742 5739 5737 5735 5733 5731 5730 5729 5727 5726 5724 5723 5722 5721 5721 5719 5718 5717 5716 5714 5713 5710 5707 5706 5705 5705 5705 5704 5703 5702 5701 5699
5769 5765 5762 5759 5756 5754 5751 5748 5746 5744 5741 5739 5737 5735 5732 5730 5728 5727 5726 5725 5723 5722 5721 5719 5719 5718 5716 5715 5714 5713 5711 5710 5707 5704 5702 5701 5700 5699 5698 5697 5696 5694 5693
5765 5761 5758 5756 5753 5751 5749 5746 5744 5741 5739 5736 5734 5732 5729 5727 5725 5724 5723 5721 5720 5718 5718 5717 5716 5715 5714 5713 5711 5709 5708 5705 5703 5700 5697 5695 5694 5693 5692 5690 5689 5688 5686
5760 5757 5755 5752 5750 5747 5744 5742 5740 5737 5735 5732 5730 5728 5726 5724 5722 5721 5719 5717 5715 5714 5713 5713 5713 5712 5711 5710 5708 5706 5704 5701 5698 5695 5692 5690 5688 5686 5685 5684 5682 5681 5679
5756 5753 5751 5748 5745 5743 5740 5737 5735 5732 5729 5727 5725 5723 5721 5720 5718 5717 5715 5713 5711 5709 5708 5708 5708 5707 5706 5705 5703 5702 5700 5697 5693 5690 5687 5684 5682 5681 5680 5678 5675 5673 5670
5751 5749 5747 5744 5741 5738 5736 5733 5730 5727 5724 5722 5720 5719 5716 5715 5713 5712 5710 5708 5706 5704 5703 5702 5702 5701 5700 5699 5697 5695 5693 5691 5689 5686 5682 5679 5677 5676 5673 5671 5668 5666 5662
5746 5744 5743 5740 5737 5734 5731 5728 5725 5722 5719 5717 5715 5714 5712 5710 5708 5707 5705 5703 5700 5699 5698 5696 5695 5694 5694 5692 5691 5688 5686 5683 5681 5679 5677 5674 5672 5669 5667 5664 5661 5658 5654
5741 5739 5738 5735 5733 5730 5727 5724 5721 5718 5715 5712 5710 5708 5706 5704 5702 5701 5699 5697 5694 5692 5690 5689 5688 5687 5686 5685 5684 5680 5677 5674 5672 5669 5667 5665 5663 5661 5658 5656 5652 5649 5645
5737 5735 5734 5732 5730 5726 5723 5720 5717 5714 5710 5707 5704 5702 5700 5698 5696 5695 5693 5691 5687 5684 5682 5681 5679 5678 5677 5676 5674 5671 5667 5663 5662 5660 5657 5655 5653 5651 5648 5646 5643 5639 5635
5732 5730 5729 5727 5725 5722 5719 5715 5712 5709 5705 5701 5698 5695 5693 5691 5688 5687 5685 5684 5680 5677 5674 5671 5669 5668 5667 5666 5664 5661 5658 5655 5652 5650 5646 5644 5641 5639 5636 5633 5631 5628 5625
5725 5723 5722 5720 5719 5717 5713 5709 5706 5702 5698 5694 5691 5688 5685 5683 5680 5678 5677 5675 5673 5669 5665 5662 5660 5658 5657 5655 5653 5650 5648 5646 5643 5639 5635 5631 5628 5625 5623 5621 5619 5616 5613
5718 5716 5714 5713 5711 5708 5706 5702 5698 5695 5691 5687 5684 5680 5677 5674 5672 5670 5668 5666 5663 5660 5656 5653 5651 5649 5647 5644 5641 5639 5637 5634 5631 5627 5623 5619 5616 5613 5611 5609 5607 5605 5602
5710 5708 5707 5704 5701 5698 5696 5694 5690 5686 5683 5679 5676 5672 5669 5666 5663 5661 5659 5656 5654 5651 5647 5644 5641 5638 5635 5632 5629 5627 5625 5622 5619 5615 5611 5607 5605 5602 5600 5597 5595 5592 5589
5702 5700 5698 5695 5692 5689 5685 5682 5680 5677 5675 5672 5668 5665 5662 5657 5654 5652 5650 5647 5645 5642 5638 5635 5631 5628 5624 5621 5618 5615 5612 5609 5606 5603 5600 5597 5594 5591 5587 5584 5581 5579 5575
5693 5691 5688 5686 5683 5679 5675 5670 5666 5665 5664 5661 5658 5656 5653 5649 5645 5643 5640 5637 5635 5632 5630 5625 5620 5616 5613 5609 5606 5603 5600 5597 5594 5592 5588 5585 5582 5578 5575 5572 5568 5565 5562
5684 5682 5680 5677 5674 5670 5667 5664 5659 5654 5652 5649 5647 5646 5643 5640 5637 5634 5631 5628 5625 5623 5620 5614 5610 5606 5602 5599 5596 5592 5589 5586 5583 5580 5577 5573 5570 5567 5563 5560 5556 5552 5549
5675 5673 5671 5668 5665 5662 5659 5656 5652 5649 5645 5639 5636 5634 5632 5630 5628 5625 5622 5620 5615 5612 5608 5604 5600 5596 5593 5589 5585 5582 5579 5575 5572 5569 5565 5561 5558 5555 5551 5547 5543 5540 5537
5666 5663 5661 5659 5656 5653 5650 5647 5644 5640 5636 5631 5627 5624 5622 5620 5618 5614 5612 5610 5606 5601 5597 5593 5589 5586 5582 5578 5575 5571 5568 5564 5561 5557 5553 5549 5546 5542 5538 5535 5531 5526 5524
5657 5655 5652 5650 5646 5643 5641 5638 5635 5632 5628 5624 5621 5617 5614 5612 5608 5604 5601 5598 5595 5590 5587 5583 5579 5576 5572 5568 5565 5561 5557 5553 5549 5546 5542 5538 5534 5530 5527 5523 5520 5516 5513
5647 5645 5644 5641 5638 5635 5632 5629 5626 5624 5620 5616 5612 5608 5606 5603 5599 5595 5592 5588 5584 5580 5577 5573 5570 5566 5562 5558 5554 5551 5547 5542 5538 5534 5531 5527 5523 5519 5515 5511 5508 5504 5501
5637 5635 5633 5631 5628 5625 5622 5619 5617 5613 5610 5606 5602 5598 5594 5592 5589 5586 5582 5578 5573 5569 5566 5563 5559 5555 5551 5547 5544 5540 5536 5532 5527 5523 5520 5516 5512 5508 5505 5501 5497 5493 5489
5628 5625 5623 5620 5618 5615 5612 5609 5606 5603 5600 5596 5592 5589 5585 5582 5578 5574 5570 5566 5562 5559 5555 5551 5548 5544 5540 5536 5533 5529 5525 5521 5517 5513 5509 5506 5502 5498 5494 5490 5487 5483 5479
5618 5616 5613 5610 5607 5605 5602 5598 5596 5593 5590 5587 5583 5579 5575 5571 5567 5563 5559 5556 5552 5548 5544 5541 5537 5533 5529 5525 5522 5518 5514 5511 5507 5504 5500 5496 5493 5489 5485 5481 5477 5473 5469
5608 5606 5604 5600 5597 5595 5592 5589 5586 5583 5580 5577 5573 5569 5565 5561 5557 5553 5549 5546 5542 5538 5534 5530 5526 5522 5519 5515 5511 5508 5504 5501 5498 5494 5490 5487 5483 5479 5475 5472 5468 5464 5460
5599 5597 5594 5591 5588 5586 5583 5580 5577 5574 5571 5567 5563 5559 5556 5552 5548 5544 5540 5536 5532 5528 5524 5520 5516 5513 5509 5505 5502 5499 5496 5492 5489 5485 5481 5478 5474 5470 5467 5463 5459 5455 5451